Le nostre stazioni meteo in Italia

Pubblicità
Il mio iltempo24.it
Kinbrace, Gran Bretagna (99016): Temperatura & dewpoint: 17.08.2017 09:00:00 - 23.08.2017 09:00:00 (BST)Kinbrace, Gran Bretagna (99016): velocità del vento & gusts: 17.08.2017 09:00:00 - 23.08.2017 09:00:00 (BST)Kinbrace, Gran Bretagna (99016): direzione del vento: 17.08.2017 09:00:00 - 23.08.2017 09:00:00 (BST)Kinbrace, Gran Bretagna (99016): visibility: 17.08.2017 09:00:00 - 23.08.2017 09:00:00 (BST)Kinbrace, Gran Bretagna (99016): precipitazioni: 17.08.2017 09:00:00 - 23.08.2017 09:00:00 (BST)
Data & Tempo tt [°C] td [°C] ff [km/h] ff [kn] fx [km/h] fx [kn] dd vv [km] rr [mm]
23.08.2017 09:00:00 - - - - - - - - -
23.08.2017 08:00:00 14,8 13,9 24 13 - - SE - 0,0
23.08.2017 07:00:00 14,9 14,0 24 13 - - SE - -
23.08.2017 06:00:00 14,8 14,0 26 14 46 25 SE - 0,0
23.08.2017 05:00:00 14,8 13,9 31 17 48 26 SE - 0,0
23.08.2017 04:00:00 14,8 13,8 24 13 50 27 SE - 0,0
23.08.2017 03:00:00 14,8 14,0 37 20 57 31 SE - 0,0
23.08.2017 02:00:00 14,8 14,1 31 17 55 30 SE - 0,0
23.08.2017 01:00:00 14,7 14,0 22 12 - - SE - 0,0
23.08.2017 00:00:00 14,5 13,9 29 16 - - SE - -
22.08.2017 23:00:00 14,7 14,0 29 16 - - SE - 0,0
22.08.2017 22:00:00 14,6 14,0 26 14 - - SE - 0,0
22.08.2017 21:00:00 14,8 13,9 26 14 - - SE - 0,0
22.08.2017 20:00:00 14,8 13,9 26 14 - - SE - 0,0
22.08.2017 19:00:00 15,0 13,9 21 11 - - SE - 0,0
22.08.2017 18:00:00 15,1 14,0 26 14 - - SE - 0,0
22.08.2017 17:00:00 14,9 13,8 22 12 - - SE - 0,0
22.08.2017 16:00:00 16,1 14,1 26 14 - - SE - 0,0
22.08.2017 15:00:00 15,6 13,9 22 12 - - SE - 0,0
22.08.2017 14:00:00 15,4 13,4 22 12 - - SE - 0,0
22.08.2017 13:00:00 15,5 13,6 28 15 - - SE - 0,0
22.08.2017 12:00:00 14,8 13,8 28 15 - - SE - 0,0
22.08.2017 11:00:00 14,4 13,2 28 15 - - SE - 0,0
22.08.2017 10:00:00 14,0 13,0 26 14 - - SE - 0,0
22.08.2017 09:00:00 13,8 12,6 24 13 - - SE - 0,0
22.08.2017 08:00:00 13,6 12,3 24 13 - - SE - 0,0
22.08.2017 07:00:00 13,3 12,1 21 11 - - SE - 0,0
22.08.2017 06:00:00 13,1 12,0 21 11 - - SE - 0,0
22.08.2017 05:00:00 13,1 11,8 28 15 - - SE - 0,0
22.08.2017 04:00:00 13,1 11,6 21 11 - - SE - 0,0
22.08.2017 03:00:00 12,8 11,1 18 10 - - SE - 0,0
22.08.2017 02:00:00 12,8 11,1 18 10 - - SE - 0,0
22.08.2017 01:00:00 12,2 10,6 18 10 - - SE - 0,0
22.08.2017 00:00:00 12,5 11,1 21 11 - - SE - 0,0
21.08.2017 23:00:00 12,8 11,6 18 10 - - SE - 0,0
21.08.2017 22:00:00 12,9 11,7 16 9 - - SE - 0,0
21.08.2017 21:00:00 12,7 11,1 18 10 - - SE - 0,0
21.08.2017 20:00:00 12,8 10,6 18 10 - - ESE - 0,0
21.08.2017 19:00:00 13,0 10,7 22 12 - - ESE - 0,0
21.08.2017 18:00:00 13,4 10,9 16 9 - - ESE - 0,0
21.08.2017 17:00:00 14,0 11,1 22 12 - - SE - 0,0
21.08.2017 16:00:00 14,4 10,6 24 13 - - ESE - 0,0
21.08.2017 15:00:00 15,1 10,3 16 9 - - ESE - 0,0
21.08.2017 14:00:00 15,0 10,0 21 11 - - ESE - 0,0
21.08.2017 13:00:00 15,2 10,5 18 10 - - ESE - 0,0
21.08.2017 12:00:00 15,5 11,2 16 9 - - SE - 0,0
21.08.2017 11:00:00 14,2 10,5 13 7 - - SE - 0,0
21.08.2017 10:00:00 13,1 10,3 16 9 - - SE - 0,0
21.08.2017 09:00:00 12,4 10,7 13 7 - - SE - 0,0
21.08.2017 08:00:00 9,6 9,5 0 0 - - N - 0,0
21.08.2017 07:00:00 8,6 8,5 0 0 - - N - 0,0
21.08.2017 06:00:00 8,0 7,8 0 0 - - N - 0,0
21.08.2017 05:00:00 7,7 7,6 4 2 - - N - 0,0
21.08.2017 04:00:00 7,7 7,3 0 0 - - N - 0,0
21.08.2017 03:00:00 8,9 8,5 0 0 - - N - 0,0
21.08.2017 02:00:00 9,0 8,8 0 0 - - N - 0,0
21.08.2017 01:00:00 8,7 8,5 0 0 - - N - 0,0
21.08.2017 00:00:00 8,4 8,1 0 0 - - N - 0,0
20.08.2017 23:00:00 7,6 6,7 0 0 - - N - 0,0
20.08.2017 22:00:00 8,5 7,3 2 1 - - NNO - 0,0
20.08.2017 21:00:00 10,1 7,6 5 3 - - NE - -
20.08.2017 20:00:00 12,1 7,8 5 3 - - NNE - 0,0
20.08.2017 19:00:00 14,1 8,6 15 8 - - N - 0,0
20.08.2017 18:00:00 14,9 9,5 18 10 - - N - 0,0
20.08.2017 17:00:00 14,9 9,4 18 10 - - NNO - 0,0
20.08.2017 16:00:00 15,8 11,3 21 11 - - NNO - 0,0
20.08.2017 15:00:00 15,0 9,9 22 12 - - NNO - 0,0
20.08.2017 14:00:00 14,3 10,0 15 8 - - NNO - 0,0
20.08.2017 13:00:00 14,6 10,3 18 10 - - NNO - 0,0
20.08.2017 12:00:00 12,6 10,5 16 9 - - NO - 0,0
20.08.2017 11:00:00 13,0 10,7 18 10 - - NNO - 0,0
20.08.2017 10:00:00 12,6 10,9 26 14 - - NNO - 0,0
20.08.2017 09:00:00 12,5 11,4 16 9 - - NNO - 0,0
20.08.2017 08:00:00 11,8 11,2 9 5 - - NNO - 0,0
20.08.2017 07:00:00 11,4 10,9 8 4 - - NNO - 0,2
20.08.2017 06:00:00 11,0 10,6 4 2 - - NO - 0,0
20.08.2017 05:00:00 11,2 10,5 11 6 - - NNO - 0,0
20.08.2017 04:00:00 11,5 10,7 21 11 - - NO - 0,0
20.08.2017 03:00:00 11,6 10,7 21 11 - - NNO - 0,0
20.08.2017 02:00:00 12,0 11,2 24 13 - - NNO - 0,2
20.08.2017 01:00:00 12,0 11,4 15 8 - - NO - 0,0
20.08.2017 00:00:00 11,9 11,5 18 10 - - NO - 2,2
19.08.2017 23:00:00 12,1 11,4 11 6 - - NO - 0,0
19.08.2017 22:00:00 12,3 11,1 18 10 - - NO - 0,0
19.08.2017 21:00:00 12,4 11,4 16 9 - - NO - 0,0
19.08.2017 20:00:00 12,7 11,5 24 13 - - NO - 0,0
19.08.2017 19:00:00 13,0 12,0 16 9 - - NO - 0,2
19.08.2017 18:00:00 13,1 12,5 22 12 - - NO - 3,2
19.08.2017 17:00:00 15,3 11,1 28 15 - - NO - 0,0
19.08.2017 16:00:00 15,2 10,8 31 17 - - NO - 0,0
19.08.2017 15:00:00 15,5 10,7 35 19 48 26 NO - 0,0
19.08.2017 14:00:00 15,2 11,6 31 17 46 25 NNO - 0,0
19.08.2017 13:00:00 15,7 12,1 29 16 - - NO - 0,0
19.08.2017 12:00:00 13,7 12,2 26 14 - - NO - 1,0
19.08.2017 11:00:00 15,3 11,4 24 13 - - ONO - 0,0
19.08.2017 10:00:00 14,0 11,8 18 10 - - NO - 0,0
19.08.2017 09:00:00 13,1 11,5 16 9 - - NO - 0,2
19.08.2017 08:00:00 12,2 11,3 11 6 - - NO - 0,0
19.08.2017 07:00:00 11,3 10,6 2 1 - - NO - 0,0
19.08.2017 06:00:00 10,1 9,2 0 0 - - N - 0,0
19.08.2017 05:00:00 10,6 10,0 2 1 - - NO - 0,0
19.08.2017 04:00:00 10,3 9,7 8 4 - - NO - 0,2
19.08.2017 03:00:00 11,0 10,4 15 8 - - NO - 0,4
19.08.2017 02:00:00 11,3 10,8 24 13 - - ONO - 0,6
19.08.2017 01:00:00 9,8 9,4 13 7 - - NNO - -
19.08.2017 00:00:00 9,1 8,4 0 0 - - N - 0,0
18.08.2017 23:00:00 10,8 9,7 0 0 - - N - 0,0
18.08.2017 22:00:00 11,4 10,1 0 0 - - N - 0,0
18.08.2017 21:00:00 11,4 9,8 0 0 - - N - 0,0
18.08.2017 20:00:00 12,3 10,6 11 6 - - NNO - 0,0
18.08.2017 19:00:00 13,3 10,8 16 9 - - NO - 0,0
18.08.2017 18:00:00 12,6 10,9 18 10 - - NNO - 0,0
18.08.2017 17:00:00 12,7 11,2 13 7 - - NNO - 0,0
18.08.2017 16:00:00 11,7 11,1 9 5 - - NO - 0,8
18.08.2017 15:00:00 11,3 10,5 13 7 - - NNO - 2,0
18.08.2017 14:00:00 12,0 10,8 16 9 - - NNO - 0,6
18.08.2017 13:00:00 12,6 10,9 21 11 - - NO - 0,4
18.08.2017 12:00:00 13,1 12,2 15 8 - - NO - 3,4
18.08.2017 11:00:00 13,5 11,7 0 0 - - N - 0,0
18.08.2017 10:00:00 13,4 11,3 0 0 - - N - 0,0
18.08.2017 09:00:00 12,6 11,5 0 0 - - N - 0,0
18.08.2017 08:00:00 11,9 11,4 8 4 - - NNO - 0,0
18.08.2017 07:00:00 10,3 10,1 0 0 - - N - 0,0
18.08.2017 06:00:00 10,1 9,9 0 0 - - N - 0,6
18.08.2017 05:00:00 9,8 9,6 0 0 - - N - 0,0
18.08.2017 04:00:00 9,3 9,2 0 0 - - N - 0,0
18.08.2017 03:00:00 7,7 7,6 0 0 - - N - 0,0
18.08.2017 02:00:00 6,7 6,3 0 0 - - N - 0,0
18.08.2017 01:00:00 6,3 4,7 0 0 - - N - 0,0
18.08.2017 00:00:00 9,5 7,6 0 0 - - N - 0,0
17.08.2017 23:00:00 11,1 9,5 5 3 - - ESE - 0,0
17.08.2017 22:00:00 12,6 9,3 4 2 - - SSE - 0,0
17.08.2017 21:00:00 13,6 9,4 0 0 - - N - 0,0
17.08.2017 20:00:00 15,5 9,5 9 5 - - SSO - 0,0
17.08.2017 19:00:00 16,7 9,8 15 8 - - SO - 0,0
17.08.2017 18:00:00 17,2 9,7 15 8 - - SSO - 0,0
17.08.2017 17:00:00 19,1 9,9 22 12 - - SSO - 0,0
17.08.2017 16:00:00 18,9 11,2 18 10 - - SSO - 0,0
17.08.2017 15:00:00 18,3 12,7 18 10 - - SO - 0,0
17.08.2017 14:00:00 16,9 11,2 31 17 48 26 SSO - 0,0
17.08.2017 13:00:00 18,8 12,1 26 14 - - SSO - 0,0
17.08.2017 12:00:00 18,5 11,3 21 11 - - SSO - 0,0
17.08.2017 11:00:00 17,5 11,1 16 9 - - SSO - 0,0
17.08.2017 10:00:00 16,3 11,2 22 12 - - S 10 0,0
17.08.2017 09:00:00 14,9 11,1 18 10 - - S - 0,0

tt = Temperatura
td = dewpoint
ff = velocità del vento
fx = gusts
dd = direzione del vento
vv = visibility
rr = precipitazioni

Stazioni seguenti

WeatherPro
AMSI
MeteoEarth